Tracking 28052 objects as of 25-Sep-2023
HD Live streaming from Space Station
objects crossing your sky now

COSMOS 795

Track COSMOS 795 now!
10-day predictions
COSMOS 795 is classified as:


NORAD ID: 8611
Int'l Code: 1976-008E
Perigee: 1,474.1 km
Apogee: 1,504.6 km
Inclination: 74.1 °
Period: 115.6 minutes
Semi major axis: 7860 km
RCS: 0.6779 m2 (medium)
Launch date: January 28, 1976
Source: Commonwealth of Independent States (former USSR) (CIS)
Launch site: PLESETSK MISSILE AND SPACE COMPLEX (PKMTR)
Your satellite tracking list
Your tracking list is empty




NASA's NSSDC Master Catalog

Two Line Element Set (TLE):
1 08611U 76008E   23267.90235012  .00000002  00000-0  12135-3 0  9996
2 08611  74.0539  66.4944 0019372  94.7378 265.5883 12.45770967167154
Source of the keplerian elements: AFSPC